| time (UTC) | temp F | wind direction | speed knots | gust knots | rain 1hr in | rain 24hr in | rain mn in | humidity % | barometer mb |
| 20260901012247 | 79 | 195 | 0.0 | 1.7 | 0.00 | 0.00 | 0.00 | 30 | 1013.0 |
| 20260901011743 | 79 | 285 | 0.9 | 2.6 | 0.00 | 0.00 | 0.00 | 28 | 1012.9 |
| 20260901011238 | 79 | 263 | 2.6 | 3.5 | 0.00 | 0.00 | 0.00 | 29 | 1012.7 |
| 20260901010732 | 81 | 266 | 2.6 | 2.6 | 0.00 | 0.00 | 0.00 | 27 | 1012.9 |
| 20260901010227 | 80 | 245 | 3.5 | 3.5 | 0.00 | 0.00 | 0.00 | 28 | 1013.0 |
| 20260901005725 | 81 | 297 | 0.0 | 1.7 | 0.00 | 0.00 | 0.00 | 29 | 1012.8 |
| 20260901005221 | 81 | 303 | 1.7 | 3.5 | 0.00 | 0.00 | 0.00 | 28 | 1012.9 |
| 20260901004720 | 81 | 270 | 2.6 | 3.5 | 0.00 | 0.00 | 0.00 | 27 | 1012.9 |
| 20260901004210 | 81 | 274 | 1.7 | 4.3 | 0.00 | 0.00 | 0.00 | 26 | 1013.2 |
| 20260901003709 | 82 | 261 | 0.0 | 1.7 | 0.00 | 0.00 | 0.00 | 27 | 1013.4 |
| 20260901003209 | 82 | 262 | 2.6 | 3.5 | 0.00 | 0.00 | 0.00 | 25 | 1013.4 |
| 20260901002703 | 82 | 287 | 1.7 | 1.7 | 0.00 | 0.00 | 0.00 | 26 | 1013.2 |
| 20260901002158 | 81 | 285 | 1.7 | 4.3 | 0.00 | 0.00 | 0.00 | 26 | 1013.4 |
| 20260901001653 | 81 | 325 | 0.0 | 2.6 | 0.00 | 0.00 | 0.00 | 26 | 1013.5 |
| 20260901001148 | 81 | 290 | 1.7 | 4.3 | 0.00 | 0.00 | 0.00 | 26 | 1013.6 |
| 20260901000644 | 81 | 278 | 1.7 | 4.3 | 0.00 | 0.00 | 0.00 | 26 | 1013.6 |
| 20260901000139 | 80 | 270 | 0.0 | 5.2 | 0.00 | 0.00 | 0.00 | 25 | 1013.6 |
| 20260831235633 | 81 | 257 | 3.5 | 5.2 | 0.00 | 0.00 | 0.00 | 26 | 1013.6 |
| 20260831235128 | 82 | 266 | 1.7 | 2.6 | 0.00 | 0.00 | 0.00 | 25 | 1013.7 |
| 20260831234627 | 81 | 286 | 0.9 | 2.6 | 0.00 | 0.00 | 0.00 | 25 | 1013.6 |
| 20260831234123 | 81 | 350 | 1.7 | 3.5 | 0.00 | 0.00 | 0.00 | 27 | 1013.9 |
| 20260831233618 | 81 | 29 | 0.0 | 3.5 | 0.00 | 0.00 | 0.00 | 26 | 1013.8 |
| 20260831233113 | 81 | 187 | 0.9 | 3.5 | 0.00 | 0.00 | 0.00 | 25 | 1014.0 |
| 20260831232609 | 81 | 245 | 1.7 | 3.5 | 0.00 | 0.00 | 0.00 | 26 | 1014.0 |
| 20260831232104 | 81 | 31 | 2.6 | 3.5 | 0.00 | 0.00 | 0.00 | 26 | 1013.9 |
| 20260831231601 | 80 | 21 | 1.7 | 2.6 | 0.00 | 0.00 | 0.00 | 26 | 1014.1 |
| 20260831231056 | 81 | 264 | 0.0 | 1.7 | 0.00 | 0.00 | 0.00 | 25 | 1014.6 |
| 20260831230552 | 81 | 250 | 2.6 | 2.6 | 0.00 | 0.00 | 0.00 | 26 | 1014.4 |
| 20260831230052 | 80 | 334 | 0.0 | 2.6 | 0.00 | 0.00 | 0.00 | 26 | 1014.2 |
| 20260831225547 | 79 | 279 | 2.6 | 5.2 | 0.00 | 0.00 | 0.00 | 28 | 1014.5 |
| 20260831225041 | 80 | 277 | 3.5 | 5.2 | 0.00 | 0.00 | 0.00 | 26 | 1014.6 |
| 20260831224537 | 80 | 35 | 0.0 | 2.6 | 0.00 | 0.00 | 0.00 | 26 | 1014.8 |
| 20260831224032 | 80 | 41 | 1.7 | 3.5 | 0.00 | 0.00 | 0.00 | 28 | 1014.6 |
| 20260831223527 | 78 | 234 | 0.9 | 3.5 | 0.00 | 0.00 | 0.00 | 26 | 1014.8 |
| 20260831223024 | 78 | 270 | 4.3 | 5.2 | 0.00 | 0.00 | 0.00 | 28 | 1014.8 |
| 20260831222520 | 78 | 82 | 2.6 | 3.5 | 0.00 | 0.00 | 0.00 | 27 | 1014.9 |
| 20260831222019 | 78 | 347 | 2.6 | 3.5 | 0.00 | 0.00 | 0.00 | 27 | 1015.0 |
| 20260831221515 | 78 | 0 | 0.9 | 4.3 | 0.00 | 0.00 | 0.00 | 28 | 1015.0 |
| 20260831221010 | 78 | 335 | 3.5 | 3.5 | 0.00 | 0.00 | 0.00 | 27 | 1015.0 |
| 20260831220505 | 77 | 65 | 0.0 | 2.6 | 0.00 | 0.00 | 0.00 | 26 | 1015.1 |
| 20260831220000 | 77 | 228 | 1.7 | 4.3 | 0.00 | 0.00 | 0.00 | 28 | 1015.5 |
| 20260831215456 | 77 | 9 | 2.6 | 4.3 | 0.00 | 0.00 | 0.00 | 27 | 1015.2 |
| 20260831214952 | 78 | 292 | 2.6 | 4.3 | 0.00 | 0.00 | 0.00 | 28 | 1015.5 |
| 20260831214449 | 76 | 328 | 2.6 | 7.8 | 0.00 | 0.00 | 0.00 | 29 | 1015.6 |
| 20260831213945 | 77 | 255 | 0.0 | 3.5 | 0.00 | 0.00 | 0.00 | 28 | 1015.7 |
| 20260831213441 | 76 | 306 | 0.9 | 6.1 | 0.00 | 0.00 | 0.00 | 27 | 1015.6 |
| 20260831212941 | 76 | 331 | 0.9 | 3.5 | 0.00 | 0.00 | 0.00 | 28 | 1015.8 |
| 20260831212437 | 77 | 306 | 4.3 | 4.3 | 0.00 | 0.00 | 0.00 | 30 | 1015.6 |
| 20260831211937 | 76 | 221 | 1.7 | 5.2 | 0.00 | 0.00 | 0.00 | 29 | 1015.7 |
| 20260831211432 | 75 | 251 | 3.5 | 3.5 | 0.00 | 0.00 | 0.00 | 29 | 1015.8 |
| 20260831210931 | 75 | 263 | 0.9 | 4.3 | 0.00 | 0.00 | 0.00 | 30 | 1016.2 |
| 20260831210427 | 75 | 285 | 1.7 | 6.1 | 0.00 | 0.00 | 0.00 | 29 | 1015.9 |
| 20260831205923 | 75 | 231 | 4.3 | 4.3 | 0.00 | 0.00 | 0.00 | 30 | 1016.2 |
| 20260831205418 | 74 | 279 | 2.6 | 4.3 | 0.00 | 0.00 | 0.00 | 31 | 1016.1 |
| 20260831204913 | 75 | 239 | 3.5 | 6.1 | 0.00 | 0.00 | 0.00 | 30 | 1016.1 |
| 20260831204412 | 74 | 247 | 4.3 | 5.2 | 0.00 | 0.00 | 0.00 | 30 | 1016.4 |
| 20260831203906 | 74 | 281 | 2.6 | 4.3 | 0.00 | 0.00 | 0.00 | 30 | 1016.2 |
| 20260831203401 | 73 | 157 | 0.0 | 4.3 | 0.00 | 0.00 | 0.00 | 30 | 1016.2 |
| 20260831202858 | 74 | 306 | 2.6 | 5.2 | 0.00 | 0.00 | 0.00 | 30 | 1016.6 |
| 20260831202354 | 73 | 303 | 1.7 | 4.3 | 0.00 | 0.00 | 0.00 | 31 | 1016.6 |
| 20260831201854 | 72 | 252 | 5.2 | 5.2 | 0.00 | 0.00 | 0.00 | 32 | 1016.7 |
| 20260831201352 | 73 | 265 | 3.5 | 4.3 | 0.00 | 0.00 | 0.00 | 33 | 1016.8 |
| 20260831200849 | 72 | 342 | 2.6 | 2.6 | 0.00 | 0.00 | 0.00 | 33 | 1016.7 |
| 20260831200343 | 71 | 14 | 2.6 | 4.3 | 0.00 | 0.00 | 0.00 | 32 | 1016.8 |
| 20260831195838 | 71 | 29 | 0.0 | 2.6 | 0.00 | 0.00 | 0.00 | 33 | 1017.0 |
| 20260831195334 | 71 | 335 | 3.5 | 4.3 | 0.00 | 0.00 | 0.00 | 34 | 1016.9 |
| 20260831194830 | 69 | 299 | 1.7 | 3.5 | 0.00 | 0.00 | 0.00 | 35 | 1017.1 |
| 20260831194325 | 70 | 8 | 0.0 | 4.3 | 0.00 | 0.00 | 0.00 | 34 | 1017.4 |
| 20260831193824 | 70 | 84 | 0.9 | 4.3 | 0.00 | 0.00 | 0.00 | 36 | 1017.4 |
| 20260831193319 | 69 | 239 | 0.0 | 5.2 | 0.00 | 0.00 | 0.00 | 38 | 1017.5 |
| 20260831192814 | 69 | 256 | 2.6 | 4.3 | 0.00 | 0.00 | 0.00 | 37 | 1017.5 |
| 20260831192309 | 68 | 270 | 2.6 | 5.2 | 0.00 | 0.00 | 0.00 | 38 | 1017.5 |
| 20260831191805 | 68 | 281 | 2.6 | 7.0 | 0.00 | 0.00 | 0.00 | 38 | 1017.6 |
| 20260831191301 | 68 | 113 | 1.7 | 2.6 | 0.00 | 0.00 | 0.00 | 37 | 1017.6 |
| 20260831190756 | 67 | 313 | 2.6 | 3.5 | 0.00 | 0.00 | 0.00 | 40 | 1017.8 |
| 20260831190250 | 67 | 90 | 1.7 | 2.6 | 0.00 | 0.00 | 0.00 | 41 | 1017.9 |
| 20260831185744 | 67 | 324 | 2.6 | 4.3 | 0.00 | 0.00 | 0.00 | 40 | 1017.9 |
| 20260831185241 | 67 | 312 | 5.2 | 6.1 | 0.00 | 0.00 | 0.00 | 41 | 1018.0 |
| 20260831184739 | 66 | 0 | 0.0 | 2.6 | 0.00 | 0.00 | 0.00 | 44 | 1018.5 |
| 20260831184235 | 64 | 272 | 4.3 | 6.1 | 0.00 | 0.00 | 0.00 | 43 | 1018.3 |
| 20260831183736 | 64 | 327 | 0.0 | 3.5 | 0.00 | 0.00 | 0.00 | 44 | 1018.3 |
| 20260831183230 | 64 | 249 | 0.9 | 4.3 | 0.00 | 0.00 | 0.00 | 45 | 1018.8 |
| 20260831182728 | 62 | 249 | 2.6 | 3.5 | 0.00 | 0.00 | 0.00 | 43 | 1018.6 |
| 20260831182224 | 62 | 294 | 0.9 | 4.3 | 0.00 | 0.00 | 0.00 | 43 | 1018.7 |
| 20260831181724 | 63 | 353 | 3.5 | 4.3 | 0.00 | 0.00 | 0.00 | 42 | 1018.8 |
| 20260831181220 | 62 | 157 | 0.9 | 3.5 | 0.00 | 0.00 | 0.00 | 43 | 1018.8 |
| 20260831180714 | 62 | 257 | 1.7 | 2.6 | 0.00 | 0.00 | 0.00 | 44 | 1018.9 |
| 20260831180209 | 60 | 275 | 3.5 | 4.3 | 0.00 | 0.00 | 0.00 | 45 | 1019.1 |
| 20260831175709 | 60 | 357 | 2.6 | 3.5 | 0.00 | 0.00 | 0.00 | 45 | 1019.3 |
| 20260831175206 | 60 | 212 | 1.7 | 4.3 | 0.00 | 0.00 | 0.00 | 44 | 1019.3 |
| 20260831174705 | 60 | 263 | 0.0 | 4.3 | 0.00 | 0.00 | 0.00 | 45 | 1019.3 |
| 20260831174201 | 59 | 311 | 0.0 | 3.5 | 0.00 | 0.00 | 0.00 | 47 | 1019.5 |
| 20260831173659 | 60 | 307 | 1.7 | 2.6 | 0.00 | 0.00 | 0.00 | 46 | 1019.5 |
| 20260831173155 | 59 | 341 | 4.3 | 5.2 | 0.00 | 0.00 | 0.00 | 46 | 1019.3 |
| 20260831172655 | 59 | 277 | 0.0 | 4.3 | 0.00 | 0.00 | 0.00 | 48 | 1019.3 |
| 20260831172150 | 59 | 24 | 1.7 | 2.6 | 0.00 | 0.00 | 0.00 | 48 | 1019.6 |
| 20260831171645 | 59 | 90 | 0.0 | 2.6 | 0.00 | 0.00 | 0.00 | 48 | 1019.7 |
| 20260831171143 | 59 | 26 | 1.7 | 3.5 | 0.00 | 0.00 | 0.00 | 48 | 1019.8 |
| 20260831170638 | 59 | 60 | 0.0 | 2.6 | 0.00 | 0.00 | 0.00 | 52 | 1019.6 |
| 20260831170135 | 56 | 13 | 2.6 | 3.5 | 0.00 | 0.00 | 0.00 | 55 | 1019.8 |
| 20260831165631 | 58 | 60 | 0.0 | 1.7 | 0.00 | 0.00 | 0.00 | 53 | 1019.7 |
| 20260831165127 | 56 | 50 | 4.3 | 5.2 | 0.00 | 0.00 | 0.00 | 55 | 1019.9 |
| 20260831164623 | 56 | 294 | 2.6 | 3.5 | 0.00 | 0.00 | 0.00 | 58 | 1019.9 |
| 20260831164119 | 55 | 270 | 3.5 | 3.5 | 0.00 | 0.00 | 0.00 | 57 | 1020.1 |
| 20260831163613 | 56 | 285 | 0.9 | 3.5 | 0.00 | 0.00 | 0.00 | 56 | 1019.9 |
| 20260831163109 | 54 | 331 | 0.0 | 3.5 | 0.00 | 0.00 | 0.00 | 57 | 1020.2 |
| 20260831162608 | 54 | 349 | 0.0 | 2.6 | 0.00 | 0.00 | 0.00 | 59 | 1020.1 |
| 20260831162106 | 53 | 277 | 0.0 | 5.2 | 0.00 | 0.00 | 0.00 | 60 | 1020.0 |
| 20260831161602 | 53 | 352 | 1.7 | 2.6 | 0.00 | 0.00 | 0.00 | 61 | 1020.3 |
| 20260831161059 | 53 | 10 | 2.6 | 3.5 | 0.00 | 0.00 | 0.00 | 60 | 1020.2 |
| 20260831160557 | 52 | 151 | 0.0 | 1.7 | 0.00 | 0.00 | 0.00 | 61 | 1020.3 |
| 20260831160053 | 52 | 270 | 1.7 | 2.6 | 0.00 | 0.00 | 0.00 | 61 | 1020.2 |
| 20260831155547 | 52 | 40 | 1.7 | 1.7 | 0.00 | 0.00 | 0.00 | 61 | 1020.1 |
| 20260831155043 | 51 | 28 | 1.7 | 2.6 | 0.00 | 0.00 | 0.00 | 62 | 1020.2 |
| 20260831154539 | 53 | 114 | 1.7 | 2.6 | 0.00 | 0.00 | 0.00 | 60 | 1020.3 |
| 20260831154038 | 51 | 0 | 0.0 | 1.7 | 0.00 | 0.00 | 0.00 | 63 | 1020.5 |
| 20260831153538 | 50 | 11 | 0.0 | 2.6 | 0.00 | 0.00 | 0.00 | 64 | 1020.2 |
| 20260831153035 | 50 | 287 | 0.0 | 3.5 | 0.00 | 0.00 | 0.00 | 64 | 1020.3 |
| 20260831152530 | 50 | 34 | 1.7 | 3.5 | 0.00 | 0.00 | 0.00 | 64 | 1020.3 |
| 20260831152026 | 50 | 120 | 1.7 | 2.6 | 0.00 | 0.00 | 0.00 | 64 | 1020.3 |
| 20260831151525 | 49 | 346 | 0.0 | 2.6 | 0.00 | 0.00 | 0.00 | 66 | 1020.3 |
| 20260831151025 | 48 | 213 | 1.7 | 2.6 | 0.00 | 0.00 | 0.00 | 67 | 1020.5 |
| 20260831150520 | 48 | 16 | 0.0 | 2.6 | 0.00 | 0.00 | 0.00 | 67 | 1020.5 |
| 20260831150016 | 48 | 279 | 0.0 | 2.6 | 0.00 | 0.00 | 0.00 | 67 | 1020.3 |
| 20260831145511 | 48 | 194 | 0.9 | 1.7 | 0.00 | 0.00 | 0.00 | 67 | 1020.2 |
| 20260831145007 | 48 | 294 | 0.0 | 2.6 | 0.00 | 0.00 | 0.00 | 67 | 1020.2 |
| 20260831144502 | 48 | 294 | 0.9 | 1.7 | 0.00 | 0.00 | 0.00 | 66 | 1020.2 |
| 20260831143957 | 48 | 23 | 0.9 | 1.7 | 0.00 | 0.00 | 0.00 | 65 | 1020.3 |
| 20260831143452 | 48 | 292 | 1.7 | 1.7 | 0.00 | 0.00 | 0.00 | 66 | 1020.3 |
| 20260831142948 | 48 | 41 | 1.7 | 2.6 | 0.00 | 0.00 | 0.00 | 66 | 1020.3 |
| 20260831142444 | 48 | 270 | 0.0 | 0.9 | 0.00 | 0.00 | 0.00 | 66 | 1020.5 |
| 20260831141938 | 48 | 187 | 0.0 | 0.9 | 0.00 | 0.00 | 0.00 | 64 | 1020.2 |
| 20260831141431 | 50 | 74 | 0.0 | 0.9 | 0.00 | 0.00 | 0.00 | 61 | 1020.2 |
| 20260831140927 | 47 | 186 | 0.0 | 0.0 | 0.00 | 0.00 | 0.00 | 67 | 1020.2 |
| 20260831140421 | 46 | 186 | 0.0 | 1.7 | 0.00 | 0.00 | 0.00 | 68 | 1020.2 |
| 20260831135920 | 45 | 212 | 0.0 | 0.9 | 0.00 | 0.00 | 0.00 | 70 | 1020.2 |
| 20260831135420 | 44 | 225 | 0.0 | 2.6 | 0.00 | 0.00 | 0.00 | 71 | 1020.1 |
| 20260831134915 | 43 | 160 | 0.0 | 2.6 | 0.00 | 0.00 | 0.00 | 74 | 1020.0 |
| 20260831134412 | 42 | 78 | 0.9 | 2.6 | 0.00 | 0.00 | 0.00 | 77 | 1020.1 |
| 20260831133911 | 42 | 26 | 0.0 | 2.6 | 0.00 | 0.00 | 0.00 | 78 | 1019.9 |
| 20260831133406 | 41 | 113 | 1.7 | 1.7 | 0.00 | 0.00 | 0.00 | 79 | 1020.0 |
| 20260831132901 | 41 | 112 | 2.6 | 2.6 | 0.00 | 0.00 | 0.00 | 78 | 1019.9 |
| 20260831132356 | 42 | 140 | 0.0 | 1.7 | 0.00 | 0.00 | 0.00 | 75 | 1019.9 |
| 20260831131855 | 42 | 154 | 0.9 | 1.7 | 0.00 | 0.00 | 0.00 | 75 | 1019.8 |
| 20260831131351 | 42 | 105 | 0.9 | 1.7 | 0.00 | 0.00 | 0.00 | 76 | 1020.0 |
| 20260831130846 | 42 | 97 | 0.9 | 1.7 | 0.00 | 0.00 | 0.00 | 75 | 1019.9 |
| 20260831130342 | 42 | 121 | 1.7 | 1.7 | 0.00 | 0.00 | 0.00 | 76 | 1019.8 |
| 20260831125841 | 42 | 83 | 0.9 | 4.3 | 0.00 | 0.00 | 0.00 | 74 | 1019.9 |
| 20260831125336 | 43 | 144 | 1.7 | 3.5 | 0.00 | 0.00 | 0.00 | 72 | 1019.9 |
| 20260831124831 | 43 | 125 | 2.6 | 5.2 | 0.00 | 0.00 | 0.00 | 72 | 1019.7 |
| 20260831124327 | 43 | 125 | 1.7 | 3.5 | 0.00 | 0.00 | 0.00 | 73 | 1019.6 |
| 20260831123827 | 43 | 112 | 2.6 | 3.5 | 0.00 | 0.00 | 0.00 | 73 | 1019.6 |
| 20260831123326 | 42 | 118 | 2.6 | 3.5 | 0.00 | 0.00 | 0.00 | 75 | 1019.1 |
| 20260831122821 | 42 | 118 | 3.5 | 3.5 | 0.00 | 0.00 | 0.00 | 75 | 1019.6 |
| 20260831122316 | 42 | 135 | 1.7 | 3.5 | 0.00 | 0.00 | 0.00 | 75 | 1019.6 |
| 20260831121816 | 42 | 96 | 2.6 | 3.5 | 0.00 | 0.00 | 0.00 | 75 | 1019.6 |
| 20260831121313 | 43 | 105 | 1.7 | 2.6 | 0.00 | 0.00 | 0.00 | 73 | 1019.5 |
| 20260831120808 | 42 | 123 | 3.5 | 3.5 | 0.00 | 0.00 | 0.00 | 73 | 1019.0 |
| 20260831120302 | 42 | 148 | 0.0 | 3.5 | 0.00 | 0.00 | 0.00 | 74 | 1019.3 |
| 20260831115757 | 42 | 98 | 1.7 | 2.6 | 0.00 | 0.00 | 0.00 | 74 | 1019.2 |
| 20260831115254 | 43 | 131 | 3.5 | 5.2 | 0.00 | 0.00 | 0.00 | 72 | 1019.5 |
| 20260831114753 | 43 | 124 | 2.6 | 4.3 | 0.00 | 0.00 | 0.00 | 73 | 1019.8 |
| 20260831114247 | 43 | 132 | 1.7 | 3.5 | 0.00 | 0.00 | 0.00 | 73 | 1019.3 |
| 20260831113742 | 42 | 132 | 0.0 | 1.7 | 0.00 | 0.00 | 0.00 | 73 | 1019.5 |
| 20260831113237 | 42 | 103 | 0.9 | 2.6 | 0.00 | 0.00 | 0.00 | 73 | 1019.3 |
| 20260831112736 | 42 | 114 | 0.9 | 2.6 | 0.00 | 0.00 | 0.00 | 73 | 1019.5 |
| 20260831112231 | 43 | 120 | 0.0 | 1.7 | 0.00 | 0.00 | 0.00 | 72 | 1019.5 |
| 20260831111727 | 43 | 117 | 1.7 | 3.5 | 0.00 | 0.00 | 0.00 | 71 | 1019.2 |
| 20260831111223 | 44 | 108 | 2.6 | 4.3 | 0.00 | 0.00 | 0.00 | 69 | 1019.3 |
| 20260831110719 | 44 | 125 | 3.5 | 5.2 | 0.00 | 0.00 | 0.00 | 70 | 1019.5 |
| 20260831110214 | 43 | 100 | 3.5 | 4.3 | 0.00 | 0.00 | 0.00 | 71 | 1019.3 |
| 20260831105712 | 44 | 103 | 4.3 | 5.2 | 0.00 | 0.00 | 0.00 | 70 | 1019.3 |
| 20260831105208 | 44 | 107 | 2.6 | 3.5 | 0.00 | 0.00 | 0.00 | 70 | 1019.2 |
| 20260831104703 | 45 | 102 | 2.6 | 3.5 | 0.00 | 0.00 | 0.00 | 68 | 1019.3 |
| 20260831104200 | 45 | 90 | 3.5 | 3.5 | 0.00 | 0.00 | 0.00 | 67 | 1019.3 |
| 20260831103659 | 46 | 120 | 2.6 | 4.3 | 0.00 | 0.00 | 0.00 | 66 | 1019.3 |
| 20260831103155 | 45 | 113 | 3.5 | 4.3 | 0.00 | 0.00 | 0.00 | 67 | 1019.1 |
| 20260831102654 | 45 | 122 | 3.5 | 4.3 | 0.00 | 0.00 | 0.00 | 68 | 1019.2 |
| 20260831102149 | 45 | 115 | 3.5 | 4.3 | 0.00 | 0.00 | 0.00 | 67 | 1019.1 |
| 20260831101645 | 45 | 118 | 2.6 | 3.5 | 0.00 | 0.00 | 0.00 | 68 | 1019.2 |
| 20260831101141 | 44 | 67 | 3.5 | 5.2 | 0.00 | 0.00 | 0.00 | 69 | 1019.2 |
| 20260831100637 | 44 | 119 | 2.6 | 4.3 | 0.00 | 0.00 | 0.00 | 69 | 1019.0 |
| 20260831100133 | 44 | 80 | 1.7 | 4.3 | 0.00 | 0.00 | 0.00 | 69 | 1019.1 |
| 20260831095630 | 44 | 112 | 2.6 | 3.5 | 0.00 | 0.00 | 0.00 | 70 | 1019.1 |
| 20260831095126 | 44 | 103 | 2.6 | 2.6 | 0.00 | 0.00 | 0.00 | 70 | 1019.0 |
| 20260831094621 | 44 | 112 | 2.6 | 2.6 | 0.00 | 0.00 | 0.00 | 70 | 1018.9 |
| 20260831094117 | 45 | 105 | 0.9 | 0.9 | 0.00 | 0.00 | 0.00 | 68 | 1018.9 |
| 20260831093613 | 45 | 103 | 1.7 | 2.6 | 0.00 | 0.00 | 0.00 | 69 | 1018.8 |
| 20260831093108 | 45 | 98 | 2.6 | 2.6 | 0.00 | 0.00 | 0.00 | 69 | 1019.0 |
| 20260831092604 | 46 | 126 | 0.0 | 1.7 | 0.00 | 0.00 | 0.00 | 67 | 1019.0 |
| 20260831092100 | 45 | 139 | 1.7 | 1.7 | 0.00 | 0.00 | 0.00 | 67 | 1019.1 |
| 20260831091559 | 46 | 94 | 1.7 | 2.6 | 0.00 | 0.00 | 0.00 | 66 | 1019.0 |
| 20260831091055 | 48 | 255 | 0.0 | 1.7 | 0.00 | 0.00 | 0.00 | 64 | 1018.9 |
| 20260831090550 | 48 | 63 | 1.7 | 3.5 | 0.00 | 0.00 | 0.00 | 61 | 1018.9 |
| 20260831090046 | 47 | 90 | 1.7 | 3.5 | 0.00 | 0.00 | 0.00 | 63 | 1019.0 |
| 20260831085541 | 47 | 124 | 2.6 | 4.3 | 0.00 | 0.00 | 0.00 | 64 | 1019.0 |
| 20260831085036 | 46 | 108 | 4.3 | 4.3 | 0.00 | 0.00 | 0.00 | 66 | 1018.9 |
| 20260831084532 | 46 | 110 | 3.5 | 4.3 | 0.00 | 0.00 | 0.00 | 67 | 1019.0 |
| 20260831084028 | 46 | 106 | 2.6 | 2.6 | 0.00 | 0.00 | 0.00 | 69 | 1019.0 |
| 20260831083524 | 46 | 120 | 2.6 | 2.6 | 0.00 | 0.00 | 0.00 | 67 | 1019.0 |
| 20260831083018 | 46 | 131 | 2.6 | 2.6 | 0.00 | 0.00 | 0.00 | 66 | 1019.0 |
| 20260831082518 | 46 | 109 | 2.6 | 3.5 | 0.00 | 0.00 | 0.00 | 66 | 1018.8 |
| 20260831082013 | 47 | 96 | 2.6 | 3.5 | 0.00 | 0.00 | 0.00 | 66 | 1018.6 |
| 20260831081509 | 46 | 97 | 2.6 | 2.6 | 0.00 | 0.00 | 0.00 | 66 | 1018.6 |
| 20260831081004 | 47 | 126 | 0.0 | 1.7 | 0.00 | 0.00 | 0.00 | 66 | 1018.6 |
| 20260831080458 | 47 | 127 | 1.7 | 2.6 | 0.00 | 0.00 | 0.00 | 65 | 1018.6 |
| 20260831075954 | 48 | 96 | 2.6 | 4.3 | 0.00 | 0.00 | 0.00 | 64 | 1018.7 |
| 20260831075449 | 48 | 95 | 3.5 | 4.3 | 0.00 | 0.00 | 0.00 | 63 | 1018.7 |
| 20260831074945 | 48 | 84 | 0.9 | 2.6 | 0.00 | 0.00 | 0.00 | 62 | 1018.6 |
| 20260831074444 | 50 | 120 | 0.0 | 1.7 | 0.00 | 0.00 | 0.00 | 60 | 1018.7 |
| 20260831073939 | 50 | 117 | 0.9 | 2.6 | 0.00 | 0.00 | 0.00 | 59 | 1018.5 |
| 20260831073438 | 50 | 109 | 0.0 | 3.5 | 0.00 | 0.00 | 0.00 | 59 | 1018.5 |
| 20260831072933 | 49 | 98 | 2.6 | 3.5 | 0.00 | 0.00 | 0.00 | 60 | 1018.6 |
| 20260831072429 | 48 | 112 | 3.5 | 3.5 | 0.00 | 0.00 | 0.00 | 62 | 1018.5 |
| 20260831071925 | 49 | 96 | 3.5 | 3.5 | 0.00 | 0.00 | 0.00 | 61 | 1018.5 |
| 20260831071424 | 49 | 99 | 1.7 | 3.5 | 0.00 | 0.00 | 0.00 | 60 | 1018.5 |
| 20260831070924 | 50 | 129 | 1.7 | 6.1 | 0.00 | 0.00 | 0.00 | 59 | 1018.6 |
| 20260831070423 | 50 | 101 | 4.3 | 7.0 | 0.00 | 0.00 | 0.00 | 57 | 1018.7 |
| 20260831065923 | 51 | 61 | 2.6 | 7.0 | 0.00 | 0.00 | 0.00 | 57 | 1018.6 |
| 20260831065420 | 51 | 105 | 4.3 | 7.8 | 0.00 | 0.00 | 0.00 | 56 | 1018.8 |
| 20260831064916 | 51 | 90 | 3.5 | 8.7 | 0.00 | 0.00 | 0.00 | 57 | 1018.7 |
| 20260831064411 | 51 | 101 | 5.2 | 7.8 | 0.00 | 0.00 | 0.00 | 56 | 1018.6 |
| 20260831063907 | 51 | 84 | 4.3 | 8.7 | 0.00 | 0.00 | 0.00 | 56 | 1018.6 |
| 20260831063402 | 51 | 117 | 3.5 | 5.2 | 0.00 | 0.00 | 0.00 | 57 | 1018.6 |
| 20260831062856 | 51 | 105 | 6.1 | 7.8 | 0.00 | 0.00 | 0.00 | 57 | 1018.7 |
| 20260831062351 | 50 | 105 | 4.3 | 6.1 | 0.00 | 0.00 | 0.00 | 58 | 1018.8 |
| 20260831061850 | 50 | 93 | 2.6 | 4.3 | 0.00 | 0.00 | 0.00 | 59 | 1018.7 |
| 20260831061349 | 51 | 115 | 2.6 | 3.5 | 0.00 | 0.00 | 0.00 | 58 | 1018.8 |
| 20260831060845 | 52 | 109 | 2.6 | 5.2 | 0.00 | 0.00 | 0.00 | 56 | 1018.3 |
| 20260831060340 | 53 | 90 | 3.5 | 6.1 | 0.00 | 0.00 | 0.00 | 54 | 1018.7 |
| 20260831055839 | 52 | 92 | 6.1 | 6.1 | 0.00 | 0.00 | 0.00 | 56 | 1018.6 |
| 20260831055334 | 53 | 121 | 5.2 | 7.0 | 0.00 | 0.00 | 0.00 | 54 | 1018.7 |
| 20260831054830 | 53 | 92 | 4.3 | 6.1 | 0.00 | 0.00 | 0.00 | 55 | 1018.7 |
| 20260831054325 | 52 | 104 | 4.3 | 6.1 | 0.00 | 0.00 | 0.00 | 55 | 1018.7 |
| 20260831053824 | 52 | 49 | 2.6 | 2.6 | 0.00 | 0.00 | 0.00 | 56 | 1018.7 |
| 20260831053323 | 53 | 108 | 3.5 | 5.2 | 0.00 | 0.00 | 0.00 | 55 | 1018.6 |
| 20260831052818 | 52 | 100 | 5.2 | 6.1 | 0.00 | 0.00 | 0.00 | 55 | 1018.7 |
| 20260831052317 | 52 | 97 | 3.5 | 4.3 | 0.00 | 0.00 | 0.00 | 56 | 1018.5 |
| 20260831051815 | 52 | 110 | 2.6 | 2.6 | 0.00 | 0.00 | 0.00 | 57 | 1018.5 |
| 20260831051314 | 53 | 111 | 2.6 | 3.5 | 0.00 | 0.00 | 0.00 | 56 | 1018.2 |
| 20260831050809 | 53 | 114 | 5.2 | 6.1 | 0.00 | 0.00 | 0.00 | 54 | 1018.6 |
| 20260831050307 | 52 | 119 | 3.5 | 4.3 | 0.00 | 0.00 | 0.00 | 56 | 1018.6 |
| 20260831045802 | 52 | 105 | 1.7 | 2.6 | 0.00 | 0.00 | 0.00 | 57 | 1018.6 |
| 20260831045257 | 54 | 120 | 2.6 | 3.5 | 0.00 | 0.00 | 0.00 | 53 | 1018.3 |
| 20260831044752 | 54 | 87 | 2.6 | 3.5 | 0.00 | 0.00 | 0.00 | 53 | 1018.6 |
| 20260831044246 | 54 | 90 | 4.3 | 5.2 | 0.00 | 0.00 | 0.00 | 53 | 1018.6 |
| 20260831043742 | 54 | 97 | 2.6 | 3.5 | 0.00 | 0.00 | 0.00 | 54 | 1018.3 |
| 20260831043237 | 54 | 106 | 1.7 | 2.6 | 0.00 | 0.00 | 0.00 | 52 | 1018.5 |
| 20260831042736 | 54 | 108 | 4.3 | 6.1 | 0.00 | 0.00 | 0.00 | 53 | 1018.3 |
| 20260831042231 | 55 | 90 | 0.9 | 4.3 | 0.00 | 0.00 | 0.00 | 52 | 1018.2 |
| 20260831041726 | 55 | 107 | 2.6 | 4.3 | 0.00 | 0.00 | 0.00 | 50 | 1018.3 |
| 20260831041226 | 55 | 110 | 1.7 | 4.3 | 0.00 | 0.00 | 0.00 | 51 | 1018.2 |
| 20260831040721 | 55 | 104 | 4.3 | 5.2 | 0.00 | 0.00 | 0.00 | 53 | 1018.1 |
| 20260831040220 | 55 | 113 | 1.7 | 2.6 | 0.00 | 0.00 | 0.00 | 50 | 1018.2 |
| 20260831035719 | 57 | 99 | 0.0 | 0.0 | 0.00 | 0.00 | 0.00 | 47 | 1018.2 |
| 20260831035213 | 57 | 173 | 0.9 | 1.7 | 0.00 | 0.00 | 0.00 | 49 | 1018.2 |
| 20260831034712 | 56 | 180 | 1.7 | 2.6 | 0.00 | 0.00 | 0.00 | 49 | 1018.0 |
| 20260831034208 | 56 | 127 | 1.7 | 2.6 | 0.00 | 0.00 | 0.00 | 51 | 1018.1 |
| 20260831033703 | 56 | 139 | 1.7 | 1.7 | 0.00 | 0.00 | 0.00 | 50 | 1017.9 |
| 20260831033203 | 57 | 120 | 0.0 | 1.7 | 0.00 | 0.00 | 0.00 | 48 | 1018.1 |
| 20260831032658 | 57 | 180 | 0.0 | 2.6 | 0.00 | 0.00 | 0.00 | 48 | 1017.9 |
| 20260831032153 | 57 | 109 | 1.7 | 1.7 | 0.00 | 0.00 | 0.00 | 48 | 1017.8 |
| 20260831031648 | 57 | 112 | 1.7 | 2.6 | 0.00 | 0.00 | 0.00 | 49 | 1017.8 |
| 20260831031147 | 57 | 111 | 0.0 | 1.7 | 0.00 | 0.00 | 0.00 | 48 | 1017.7 |
| 20260831030646 | 58 | 115 | 1.7 | 2.6 | 0.00 | 0.00 | 0.00 | 48 | 1017.6 |
| 20260831030145 | 59 | 135 | 0.0 | 1.7 | 0.00 | 0.00 | 0.00 | 45 | 1017.6 |
| 20260831025644 | 58 | 103 | 0.9 | 1.7 | 0.00 | 0.00 | 0.00 | 48 | 1017.2 |
| 20260831025139 | 59 | 135 | 1.7 | 2.6 | 0.00 | 0.00 | 0.00 | 46 | 1017.0 |
| 20260831024635 | 60 | 132 | 1.7 | 1.7 | 0.00 | 0.00 | 0.00 | 45 | 1017.2 |
| 20260831024133 | 61 | 139 | 1.7 | 1.7 | 0.00 | 0.00 | 0.00 | 45 | 1017.0 |
| 20260831023632 | 62 | 0 | 0.9 | 3.5 | 0.00 | 0.00 | 0.00 | 41 | 1016.7 |
| 20260831023132 | 62 | 297 | 2.6 | 6.1 | 0.00 | 0.00 | 0.00 | 41 | 1016.8 |
| 20260831022627 | 62 | 288 | 1.7 | 2.6 | 0.00 | 0.00 | 0.00 | 41 | 1016.8 |
| 20260831022122 | 62 | 273 | 3.5 | 4.3 | 0.00 | 0.00 | 0.00 | 40 | 1017.1 |
| 20260831021620 | 63 | 77 | 0.9 | 3.5 | 0.00 | 0.00 | 0.00 | 41 | 1017.0 |
| 20260831021116 | 63 | 314 | 3.5 | 4.3 | 0.00 | 0.00 | 0.00 | 40 | 1016.9 |
| 20260831020612 | 64 | 277 | 0.9 | 7.0 | 0.00 | 0.00 | 0.00 | 39 | 1016.6 |
| 20260831020107 | 64 | 326 | 1.7 | 6.1 | 0.00 | 0.00 | 0.00 | 38 | 1016.9 |
| 20260831015603 | 65 | 263 | 6.1 | 6.1 | 0.00 | 0.00 | 0.00 | 38 | 1016.8 |
| 20260831015057 | 65 | 268 | 4.3 | 7.8 | 0.00 | 0.00 | 0.00 | 37 | 1016.6 |
| 20260831014552 | 66 | 287 | 2.6 | 7.0 | 0.00 | 0.00 | 0.00 | 37 | 1016.8 |
| 20260831014047 | 66 | 272 | 4.3 | 7.0 | 0.00 | 0.00 | 0.00 | 36 | 1016.6 |
| 20260831013543 | 66 | 307 | 6.1 | 8.7 | 0.00 | 0.00 | 0.00 | 36 | 1016.5 |
| 20260831013037 | 67 | 280 | 4.3 | 8.7 | 0.00 | 0.00 | 0.00 | 35 | 1016.6 |
| 20260831012532 | 67 | 299 | 4.3 | 7.0 | 0.00 | 0.00 | 0.00 | 36 | 1016.7 |